{"data":{"norad_id":67456,"epoch":"2026-05-24T23:51:04.314816Z","epoch_age_seconds":86252,"freshness":"FRESH","line1":"1 67456U 26008M   26144.99379994  .00017461  00000+0  64225-3 0  9990","line2":"2 67456  42.9963 134.1556 0000990 299.7874  60.2879 15.27595162 21246","mean_motion":15.27595162,"eccentricity":9.9e-5,"inclination_deg":42.9963,"raan_deg":134.1556,"arg_perigee_deg":299.7874,"mean_anomaly_deg":60.2879,"bstar":0.00064225,"rev_number":2124,"period_min":94.265813078033,"perigee_km":482.32444300377,"apogee_km":483.68294886156,"semimajor_km":6861.1406959327,"source":"CELESTRAK","updated_at":"2026-05-25T13:38:21.561673Z"}}